Volver al catálogo

COSMOS 795

ActivoMilitarLEO
NORAD 8611·PAYLOAD·🇷🇺 Russia

Lanzado Jan 28, 1976 desde Plesetsk Cosmodrome

Loading…

Próximos Pases (próximas 24 horas)

TLE

ActualizadoSource: Space-Track

Época: Sep 14, 2026, 10:38 UTC

1 08611U 76008E   26257.44352413 -.00000026  00000-0 -74773-4 0  9997
2 08611  74.0523  77.4712 0020284 273.3280  86.5448 12.45795560302349

Sigue COSMOS 795 en tiempo real con AllMySat

Download on the App Store